Weather History for LIEB - October, 2013

Change the Weather History Date:

Thursday, October 3, 2013

  Actual Average (LIED) Record (LIED)
Temperature  
Mean Temperature 76 °F -  
Max Temperature 83 °F 70 °F 87 °F (2003)
Min Temperature 69 °F 59 °F 53 °F (1996)
Cooling Degree Days 12    
Growing Degree Days 26 (Base 50)    
Moisture  
Dew Point 68 °F    
Average Humidity 83    
Maximum Humidity 88    
Minimum Humidity 62    
Precipitation  
Precipitation 0.01 in 0.09 in - ()
Sea Level Pressure  
Sea Level Pressure 30.09 in    
Wind  
Wind Speed 7 mph ()    
Max Wind Speed 16 mph    
Max Gust Speed -    
Visibility 6.6 miles    
Events Rain    
Averages and records for this station are not official NWS values.
T = Trace of Precipitation, MM = Missing Value Source: Averaged Metar Reports

Daily Weather History Graph

Daily Weather History Graph

Search for Another Location

Airport or City:

Trip Planner

Search our weather history database for the weather conditions in past years. The results will help you decide how hot, cold, wet, or windy it might be!

Date:

Astronomy

Oct. 03, 2013 Rise Set
Actual Time 7:19 AM CEST 7:00 PM CEST
Civil Twilight 6:52 AM CEST 7:27 PM CEST
Nautical Twilight 6:21 AM CEST 7:58 PM CEST
Astronomical Twilight 5:49 AM CEST 8:30 PM CEST
Moon 5:36 AM CEST (10/3) 5:59 PM CEST (10/3)
Length of Visible Light 12h 34m
Length of Day
11h 40m
Waning Crescent, 3% of the Moon is Illuminated
Oct 3
Waning Crescent
Oct 5
New
Oct 12
First Quarter
Oct 19
Full
Oct 27
Last Quarter

Hourly Weather History & Observations

Time (CEST) Temp. Heat Index Dew Point Humidity Pressure Visibility Wind Dir Wind Speed Gust Speed Precip Events Conditions
12:55 AM 71.6 °F - 66.2 °F 83% 30.01 in 6.2 mi NW 4.6 mph - N/A   Mostly Cloudy
1:55 AM 69.8 °F - 66.2 °F 88% 30.01 in 6.2 mi NW 3.5 mph - N/A   Mostly Cloudy
2:00 AM 70 °F - 65 °F 81% 30.02 in 6 mi NW 3.5 mph - -   Overcast
4:55 AM 71.6 °F - 68.0 °F 88% 30.01 in 6.2 mi SE 10.4 mph - N/A   Mostly Cloudy
5:55 AM 71.6 °F - 68.0 °F 88% 30.04 in 6.2 mi SE 9.2 mph - N/A   Mostly Cloudy
6:55 AM 71.6 °F - 68.0 °F 88% 30.04 in 6.2 mi SE 16.1 mph - N/A   Scattered Clouds
7:55 AM 71.6 °F - 66.2 °F 83% 30.04 in 6.2 mi SE 10.4 mph - N/A   Mostly Cloudy
8:00 AM 72 °F - 67 °F 79% 30.04 in 6 mi SE 10.4 mph - -   Overcast
8:55 AM 71.6 °F - 66.2 °F 83% 30.06 in 6.2 mi ESE 11.5 mph - N/A   Mostly Cloudy
9:55 AM 71.6 °F - 66.2 °F 83% 30.06 in 6.2 mi ESE 8.1 mph - N/A   Scattered Clouds
10:55 AM 73.4 °F - 66.2 °F 78% 30.09 in 6.2 mi SE 5.8 mph - N/A   Scattered Clouds
11:55 AM 75.2 °F - 66.2 °F 73% 30.12 in 6.2 mi SE 6.9 mph - N/A   Scattered Clouds
12:55 PM 82.4 °F 85.4 °F 68.0 °F 62% 30.12 in 6.2 mi SE 9.2 mph - N/A   Scattered Clouds
1:55 PM 80.6 °F 85.4 °F 73.4 °F 79% 30.12 in 6.2 mi SSE 6.9 mph - N/A   Scattered Clouds
2:00 PM 81 °F - 73 °F 71% 30.11 in 12 mi SSE 6.9 mph - -   Mostly Cloudy
2:55 PM 75.2 °F - 68.0 °F 78% 30.12 in 6.2 mi ENE 6.9 mph - N/A   Scattered Clouds
3:55 PM 77.0 °F - 69.8 °F 78% 30.09 in 6.2 mi SSE 8.1 mph - N/A   Mostly Cloudy
4:55 PM 75.2 °F - 69.8 °F 83% 30.09 in 6.2 mi SSE 9.2 mph - N/A   Scattered Clouds
5:55 PM 73.4 °F - 69.8 °F 88% 30.09 in 6.2 mi SSE 8.1 mph - N/A   Scattered Clouds
6:55 PM 71.6 °F - 68.0 °F 88% 30.09 in 6.2 mi NNE 6.9 mph - N/A   Scattered Clouds
7:55 PM 71.6 °F - 68.0 °F 88% 30.12 in 6.2 mi NNE 6.9 mph - N/A   Scattered Clouds
8:00 PM 72 °F - 68 °F 84% 30.14 in 12 mi NNE 6.9 mph - -   Partly Cloudy
8:55 PM 71.6 °F - 68.0 °F 88% 30.15 in 6.2 mi SE 8.1 mph - N/A   Scattered Clouds
9:55 PM 71.6 °F - 68.0 °F 88% 30.15 in 6.2 mi SSE 10.4 mph - N/A   Scattered Clouds
10:55 PM 71.6 °F - 68.0 °F 88% 30.15 in 6.2 mi SSE 9.2 mph - N/A Rain Light Rain
11:55 PM 69.8 °F - 66.2 °F 88% 30.15 in 6.2 mi WSW 9.2 mph - N/A   Partly Cloudy